period_start,C,m1,H,J0,J1,J2,J3,J4,J5,JA,JB,JC,JD,JJ,JK,JN,#
2017-11-25 00:02:21,0.04,2.19,0.00,16.88,20.14,23.28,14.35,49.98,1018.84,2056.00,2581.98,2646.32,2915.14,600.06,609.97,55.33,0000 0000 0000 0000 000000
2017-11-25 00:07:23,0.01,2.19,0.00,16.91,20.14,23.29,14.33,49.97,1018.82,2056.00,2581.58,2646.03,2915.00,600.02,609.85,55.38,0000 0000 0000 0000 000000
2017-11-25 00:12:24,0.00,2.19,0.00,16.90,20.14,23.29,14.24,49.97,1018.68,2056.00,2581.07,2646.00,2915.00,600.04,609.82,55.43,0000 0000 0000 0000 000000
2017-11-25 00:17:25,0.01,2.19,0.00,16.92,20.14,23.32,14.35,49.92,1018.59,2056.00,2580.99,2645.99,2914.80,600.12,609.80,55.48,0000 0000 0000 0000 000000
2017-11-25 00:22:27,0.01,2.19,0.00,16.88,20.14,23.38,14.32,50.11,1018.57,2056.00,2580.95,2645.87,2914.14,599.95,609.77,55.53,0000 0000 0000 0000 000000
2017-11-25 00:27:28,0.02,2.20,0.00,16.91,20.14,23.33,14.23,49.98,1018.57,2056.00,2580.68,2645.51,2914.02,599.93,609.58,55.58,0000 0000 0000 0000 000000
2017-11-25 00:32:29,0.02,2.20,0.00,16.93,20.15,23.29,14.33,50.04,1018.57,2056.00,2580.17,2645.10,2914.00,599.86,609.52,55.63,0000 0000 0000 0000 000000
2017-11-25 00:37:30,0.01,2.20,0.00,16.92,20.15,23.32,14.37,49.99,1018.51,2056.00,2580.01,2645.01,2913.77,600.27,609.79,55.68,0000 0000 0000 0000 000000
2017-11-25 00:42:32,0.04,2.20,0.00,16.90,20.15,23.36,14.36,49.96,1018.41,2055.99,2579.20,2644.74,2913.04,599.95,609.57,55.73,0000 0000 0000 0000 000000
2017-11-25 00:47:33,0.02,2.20,0.00,16.92,20.16,23.34,14.23,50.01,1018.25,2055.99,2578.99,2644.09,2912.96,600.05,609.50,55.78,0000 0000 0000 0000 000000
2017-11-25 00:52:35,0.02,2.20,0.00,16.88,20.16,23.34,14.31,49.93,1018.22,2055.99,2578.93,2644.02,2912.56,599.90,609.51,55.83,0000 0000 0000 0000 000000
2017-11-25 00:57:36,0.01,2.20,0.00,16.91,20.17,23.38,14.39,49.95,1018.11,2055.99,2578.62,2644.00,2912.08,600.35,609.82,55.88,0000 0000 0000 0000 000000
2017-11-25 01:02:37,0.02,2.20,0.00,16.92,20.17,23.35,14.33,49.97,1018.08,2055.98,2578.00,2643.84,2911.96,600.11,609.57,55.93,0000 0000 0000 0000 000000
2017-11-25 01:07:38,0.06,2.21,0.00,16.88,20.17,23.34,14.34,50.04,1017.91,2055.97,2577.08,2643.05,2911.17,600.00,609.40,55.98,0000 0000 0000 0000 000000
2017-11-25 01:12:39,0.00,2.21,0.00,16.84,20.17,23.35,14.35,49.93,1017.74,2055.98,2576.91,2642.99,2911.01,600.07,609.49,56.03,0000 0000 0000 0000 000000
2017-11-25 01:17:41,0.01,2.21,0.00,16.87,20.17,23.45,14.34,49.92,1017.76,2055.97,2576.27,2642.93,2910.98,600.11,609.44,56.08,0000 0000 0000 0000 000000
2017-11-25 01:22:42,0.02,2.21,0.00,16.89,20.17,23.37,14.30,49.76,1017.93,2055.98,2576.07,2642.71,2910.83,600.16,609.73,56.13,0000 0000 0000 0000 000000
2017-11-25 01:27:43,0.05,2.21,0.00,16.89,20.17,23.45,14.38,49.72,1017.82,2055.98,2575.60,2641.98,2909.95,600.40,609.68,56.19,0000 0000 0000 0000 000000
2017-11-25 01:32:44,0.07,2.22,0.00,16.89,20.17,23.38,14.26,49.77,1017.66,2055.97,2574.42,2641.09,2909.06,600.18,609.39,56.24,0000 0000 0000 0000 000000
2017-11-25 01:37:46,0.00,2.22,0.00,16.90,20.17,23.38,14.35,49.88,1017.62,2055.96,2574.00,2641.00,2908.99,600.38,609.71,56.29,0000 0000 0000 0000 000000
2017-11-25 01:42:47,0.00,2.22,0.00,16.88,20.17,23.40,14.37,49.80,1017.61,2055.96,2574.00,2641.00,2908.94,600.07,609.30,56.34,0000 0000 0000 0000 000000
2017-11-25 01:47:48,0.01,2.22,0.00,16.86,20.17,23.45,14.33,49.80,1017.63,2055.96,2573.96,2640.99,2908.54,600.09,609.42,56.39,0000 0000 0000 0000 000000
2017-11-25 01:52:49,0.00,2.22,0.00,16.90,20.17,23.42,14.29,49.86,1017.59,2055.94,2573.92,2640.97,2908.10,600.05,609.22,56.44,0000 0000 0000 0000 000000
2017-11-25 01:57:51,0.04,2.22,0.00,16.86,20.17,23.43,14.34,49.83,1017.59,2055.97,2573.25,2640.68,2908.03,599.91,609.11,56.49,0000 0000 0000 0000 000000
2017-11-25 02:02:52,0.01,2.22,0.00,16.87,20.17,23.36,14.39,49.85,1017.58,2055.97,2573.00,2640.25,2908.00,600.28,609.59,56.54,0000 0000 0000 0000 000000
2017-11-25 02:07:53,0.00,2.22,0.00,16.91,20.17,23.36,14.37,49.76,1017.59,2055.95,2572.98,2640.03,2908.00,600.08,609.29,56.59,0000 0000 0000 0000 000000
2017-11-25 02:12:55,0.02,2.22,0.00,16.90,20.17,23.32,14.28,49.83,1017.52,2055.96,2572.57,2640.00,2907.80,599.81,608.92,56.64,0000 0000 0000 0000 000000
2017-11-25 02:17:56,0.03,2.22,0.00,16.89,20.17,23.32,14.44,49.83,1017.48,2055.97,2571.94,2639.63,2907.03,600.18,609.31,56.69,0000 0000 0000 0000 000000
2017-11-25 02:22:58,0.02,2.22,0.00,16.92,20.17,23.35,14.35,49.71,1017.24,2055.96,2571.60,2639.14,2906.98,600.35,609.13,56.74,0000 0000 0000 0000 000000
2017-11-25 02:27:59,0.02,2.22,0.00,16.91,20.17,23.35,14.31,49.72,1017.11,2055.92,2571.10,2639.02,2906.70,599.88,608.80,56.79,0000 0000 0000 0000 000000
2017-11-25 02:33:00,0.00,2.23,0.00,16.91,20.17,23.33,14.18,49.64,1017.11,2055.90,2571.01,2639.00,2906.15,599.80,608.67,56.84,0000 0000 0000 0000 000000
2017-11-25 02:38:01,-0.01,2.23,0.00,16.92,20.17,23.28,14.25,49.85,1017.11,2055.80,2570.99,2639.00,2906.02,599.90,608.87,56.89,0000 0000 0000 0000 000000
2017-11-25 02:43:03,0.01,2.23,0.00,16.92,20.17,23.33,14.42,49.76,1017.10,2055.84,2570.88,2638.99,2906.00,600.45,609.26,56.94,0000 0000 0000 0000 000000
2017-11-25 02:48:04,0.02,2.23,0.00,16.93,20.17,23.31,14.26,49.77,1017.03,2055.82,2570.18,2638.94,2905.99,600.18,608.85,56.99,0000 0000 0000 0000 000000
2017-11-25 02:53:05,0.01,2.23,0.00,16.93,20.17,23.24,14.23,49.92,1016.84,2055.88,2570.02,2638.61,2905.97,599.63,608.39,57.05,0000 0000 0000 0000 000000
2017-11-25 02:58:07,0.04,2.23,0.00,16.96,20.17,23.27,14.31,50.08,1016.64,2055.92,2569.75,2638.21,2905.70,600.14,608.67,57.10,0000 0000 0000 0000 000000
2017-11-25 03:03:08,0.01,2.23,0.00,16.94,20.17,23.27,14.28,50.08,1016.64,2055.86,2569.03,2638.00,2905.03,599.86,608.35,57.15,0000 0000 0000 0000 000000
2017-11-25 03:08:09,0.00,2.23,0.00,16.91,20.17,23.27,14.26,49.97,1016.62,2055.84,2568.99,2637.98,2905.00,599.86,608.44,57.20,0000 0000 0000 0000 000000
2017-11-25 03:13:10,0.00,2.23,0.00,16.94,20.17,23.33,14.20,49.92,1016.62,2055.82,2568.90,2637.92,2904.98,599.67,608.28,57.25,0000 0000 0000 0000 000000
2017-11-25 03:18:11,0.05,2.23,0.00,16.98,20.17,23.29,14.15,49.84,1016.60,2055.72,2568.13,2637.23,2904.44,599.77,608.15,57.30,0000 0000 0000 0000 000000
2017-11-25 03:23:12,0.00,2.23,0.00,16.89,20.17,23.24,14.21,49.98,1016.49,2055.54,2568.00,2637.01,2904.05,599.89,608.53,57.35,0000 0000 0000 0000 000000
2017-11-25 03:28:13,0.00,2.23,0.00,16.95,20.17,23.34,14.32,49.92,1016.42,2055.60,2567.90,2637.00,2904.00,600.09,608.52,57.40,0000 0000 0000 0000 000000
2017-11-25 03:33:15,-0.01,2.23,0.00,16.97,20.17,23.34,14.27,49.98,1016.24,2055.29,2567.33,2636.99,2903.96,599.79,608.10,57.45,0000 0000 0000 0000 000000
2017-11-25 03:38:16,0.02,2.23,0.00,16.92,20.17,23.32,14.26,49.97,1016.24,2055.13,2567.02,2636.75,2903.54,600.14,608.37,57.50,0000 0000 0000 0000 000000
2017-11-25 03:43:17,0.04,2.23,0.00,16.94,20.17,23.34,14.20,49.81,1016.29,2055.18,2566.96,2636.09,2903.03,599.71,607.89,57.55,0000 0000 0000 0000 000000
2017-11-25 03:48:18,0.06,2.24,0.00,16.95,20.18,23.33,14.32,49.82,1016.21,2055.34,2566.14,2635.85,2902.68,600.26,608.35,57.60,0000 0000 0000 0000 000000
2017-11-25 03:53:19,0.09,2.24,0.00,16.97,20.19,23.36,14.33,49.73,1016.17,2055.41,2564.64,2634.86,2901.73,600.28,608.38,57.65,0000 0000 0000 0000 000000
2017-11-25 03:58:21,0.10,2.25,0.00,16.97,20.19,23.35,14.22,49.85,1016.15,2055.20,2562.58,2633.56,2900.50,599.87,607.92,57.70,0000 0000 0000 0000 000000
2017-11-25 04:03:22,0.02,2.25,0.00,16.98,20.19,23.32,14.31,49.87,1016.13,2055.29,2562.00,2633.03,2900.00,600.20,608.30,57.75,0000 0000 0000 0000 000000
2017-11-25 04:08:23,0.01,2.25,0.00,16.98,20.19,23.31,14.22,49.97,1016.13,2055.37,2561.95,2633.03,2899.99,599.86,607.98,57.80,0000 0000 0000 0000 000000
2017-11-25 04:13:24,0.01,2.25,0.00,16.98,20.19,23.34,14.32,49.89,1016.13,2055.36,2561.44,2633.00,2899.91,600.33,608.46,57.85,0000 0000 0000 0000 000000
2017-11-25 04:18:25,0.01,2.25,0.00,16.98,20.19,23.34,14.32,49.90,1016.13,2055.17,2561.02,2633.00,2899.36,600.26,608.42,57.91,0000 0000 0000 0000 000000
2017-11-25 04:23:27,-0.00,2.25,0.00,17.00,20.19,23.33,14.25,49.88,1016.13,2055.10,2561.02,2632.97,2899.03,599.78,607.74,57.96,0000 0000 0000 0000 000000
2017-11-25 04:28:28,-0.00,2.25,0.00,16.97,20.19,23.30,14.14,49.88,1016.13,2055.05,2561.00,2632.98,2899.01,599.84,608.00,58.01,0000 0000 0000 0000 000000
2017-11-25 04:33:29,0.00,2.25,0.00,16.99,20.20,23.30,14.34,49.83,1016.13,2055.02,2561.00,2632.94,2899.00,600.31,608.40,58.06,0000 0000 0000 0000 000000
2017-11-25 04:38:30,0.01,2.25,0.00,16.97,20.21,23.34,14.18,49.79,1016.13,2055.02,2560.97,2632.67,2898.99,599.58,607.61,58.11,0000 0000 0000 0000 000000
2017-11-25 04:43:31,0.03,2.25,0.00,16.94,20.22,23.35,14.17,49.82,1016.13,2055.01,2560.56,2632.12,2898.96,599.81,607.89,58.16,0000 0000 0000 0000 000000
2017-11-25 04:48:32,0.00,2.25,0.00,16.98,20.22,23.35,14.33,49.88,1016.08,2055.02,2560.05,2632.01,2898.88,600.04,608.17,58.21,0000 0000 0000 0000 000000
2017-11-25 04:53:34,0.01,2.25,0.00,17.00,20.22,23.34,14.27,49.67,1015.89,2055.05,2560.01,2632.00,2898.49,600.26,608.28,58.26,0000 0000 0000 0000 000000
2017-11-25 04:58:35,0.01,2.25,0.00,16.99,20.22,23.30,14.22,49.63,1015.68,2055.03,2559.99,2631.99,2898.06,599.84,607.61,58.31,0000 0000 0000 0000 000000
2017-11-25 05:03:36,0.00,2.25,0.00,17.00,20.22,23.37,14.30,49.66,1015.68,2055.00,2559.93,2631.98,2898.00,600.18,607.79,58.36,0000 0000 0000 0000 000000
2017-11-25 05:08:37,0.01,2.25,0.00,17.01,20.22,23.36,14.22,49.71,1015.65,2055.01,2559.41,2631.96,2898.00,599.91,607.68,58.41,0000 0000 0000 0000 000000
2017-11-25 05:13:38,0.02,2.26,0.00,16.99,20.23,23.37,14.28,49.71,1015.64,2055.00,2559.06,2631.64,2898.00,599.89,607.62,58.46,0000 0000 0000 0000 000000
2017-11-25 05:18:39,0.01,2.26,0.00,17.02,20.24,23.33,14.27,49.58,1015.64,2055.01,2559.00,2631.15,2897.95,599.89,607.60,58.51,0000 0000 0000 0000 000000
2017-11-25 05:23:41,0.01,2.26,0.00,17.03,20.24,23.35,14.26,49.60,1015.64,2055.00,2559.00,2631.03,2897.39,599.92,607.58,58.56,0000 0000 0000 0000 000000
2017-11-25 05:28:42,0.00,2.26,0.00,17.03,20.24,23.32,14.27,49.63,1015.64,2055.00,2559.00,2631.00,2897.07,600.22,607.86,58.61,0000 0000 0000 0000 000000
2017-11-25 05:33:43,0.00,2.26,0.00,17.03,20.24,23.33,14.25,49.48,1015.64,2055.00,2558.98,2631.00,2897.01,600.00,607.64,58.66,0000 0000 0000 0000 000000
2017-11-25 05:38:44,0.00,2.26,0.00,17.07,20.24,23.35,14.21,49.66,1015.64,2055.00,2558.93,2630.99,2897.00,600.04,607.54,58.71,0000 0000 0000 0000 000000
2017-11-25 05:43:46,0.01,2.26,0.00,17.06,20.25,23.36,14.24,49.51,1015.64,2055.00,2558.26,2630.95,2896.99,600.16,607.76,58.76,0000 0000 0000 0000 000000
2017-11-25 05:48:47,0.01,2.26,0.00,17.06,20.27,23.35,14.30,49.58,1015.63,2055.00,2558.01,2630.77,2896.97,599.91,607.54,58.81,0000 0000 0000 0000 000000
2017-11-25 05:53:48,0.03,2.26,0.00,17.07,20.27,23.36,14.22,49.52,1015.63,2055.00,2558.00,2630.23,2896.49,600.21,607.87,58.86,0000 0000 0000 0000 000000
2017-11-25 05:58:50,0.01,2.26,0.00,17.04,20.27,23.36,14.24,49.58,1015.56,2055.00,2557.93,2630.03,2896.03,599.99,607.59,58.92,0000 0000 0000 0000 000000
2017-11-25 06:03:51,0.02,2.26,0.00,17.03,20.28,23.42,14.21,49.60,1015.39,2055.00,2557.24,2629.99,2896.00,599.84,607.41,58.97,0000 0000 0000 0000 000000
2017-11-25 06:08:52,0.01,2.26,0.00,17.09,20.29,23.42,14.30,49.58,1015.28,2054.99,2556.98,2629.80,2895.75,600.25,607.56,59.02,0000 0000 0000 0000 000000
2017-11-25 06:13:54,0.05,2.27,0.00,17.05,20.29,23.40,14.31,49.62,1015.21,2054.99,2556.33,2629.11,2895.09,600.11,607.52,59.07,0000 0000 0000 0000 000000
2017-11-25 06:18:55,0.00,2.27,0.00,17.03,20.29,23.42,14.32,49.78,1015.16,2054.99,2556.01,2629.01,2895.00,600.39,607.74,59.12,0000 0000 0000 0000 000000
2017-11-25 06:23:57,0.00,2.27,0.00,17.05,20.29,23.46,14.23,49.74,1015.15,2054.99,2555.99,2629.00,2894.98,600.03,607.30,59.17,0000 0000 0000 0000 000000
2017-11-25 06:28:58,0.02,2.27,0.00,17.01,20.29,23.44,14.24,49.83,1015.15,2054.99,2555.36,2628.96,2894.85,599.94,607.46,59.22,0000 0000 0000 0000 000000
2017-11-25 06:33:59,0.04,2.27,0.00,17.01,20.30,23.52,14.26,49.73,1015.15,2054.98,2555.02,2628.53,2894.18,599.97,607.51,59.27,0000 0000 0000 0000 000000
2017-11-25 06:39:01,0.01,2.27,0.00,17.00,20.30,23.50,14.24,49.83,1015.15,2054.99,2555.00,2628.08,2894.01,599.68,607.20,59.32,0000 0000 0000 0000 000000
2017-11-25 06:44:02,-0.00,2.27,0.00,16.98,20.30,23.52,14.25,49.70,1015.15,2054.98,2554.91,2628.01,2894.00,599.99,607.54,59.37,0000 0000 0000 0000 000000
2017-11-25 06:49:03,0.01,2.27,0.00,16.95,20.30,23.54,14.29,49.77,1015.15,2054.98,2554.27,2628.00,2893.97,600.03,607.59,59.42,0000 0000 0000 0000 000000
2017-11-25 06:54:05,0.00,2.27,0.00,16.97,20.29,23.53,14.29,49.64,1015.15,2054.97,2554.02,2628.00,2893.90,599.88,607.42,59.47,0000 0000 0000 0000 000000
2017-11-25 06:59:05,0.01,2.27,0.00,16.99,20.29,23.56,14.20,49.73,1015.15,2054.98,2554.00,2628.00,2893.36,599.95,607.42,59.52,0000 0000 0000 0000 000000
2017-11-25 07:04:07,0.01,2.27,0.00,16.93,20.29,23.55,14.34,49.73,1015.15,2054.98,2553.98,2627.93,2893.03,600.15,607.80,59.57,0000 0000 0000 0000 000000
2017-11-25 07:09:08,0.01,2.27,0.00,16.95,20.29,23.60,14.21,49.74,1015.15,2054.98,2553.86,2627.77,2893.01,600.04,607.72,59.62,0000 0000 0000 0000 000000
2017-11-25 07:14:09,0.02,2.27,0.00,16.95,20.29,23.63,14.29,49.79,1015.15,2054.98,2553.39,2627.38,2893.00,599.98,607.57,59.67,0000 0000 0000 0000 000000
2017-11-25 07:19:10,0.01,2.28,0.00,16.92,20.29,23.59,14.28,49.75,1015.15,2054.98,2553.02,2627.06,2892.98,599.81,607.44,59.72,0000 0000 0000 0000 000000
2017-11-25 07:24:11,-0.00,2.28,0.00,16.96,20.29,23.56,14.20,49.67,1015.15,2054.98,2553.00,2627.01,2892.95,599.93,607.39,59.77,0000 0000 0000 0000 000000
2017-11-25 07:29:12,0.00,2.28,0.00,16.96,20.28,23.54,14.31,49.63,1015.09,2054.99,2552.96,2627.00,2892.65,600.22,607.79,59.83,0000 0000 0000 0000 000000
2017-11-25 07:34:13,0.01,2.28,0.00,16.96,20.28,23.50,14.24,49.64,1015.10,2054.99,2552.68,2627.00,2892.20,600.24,607.84,59.88,0000 0000 0000 0000 000000
2017-11-25 07:39:15,0.01,2.28,0.00,16.96,20.27,23.46,14.21,49.71,1015.12,2054.99,2552.22,2626.99,2892.05,599.76,607.28,59.93,0000 0000 0000 0000 000000
2017-11-25 07:44:16,0.00,2.28,0.00,16.96,20.27,23.46,14.28,49.64,1014.97,2054.99,2552.04,2626.97,2892.01,600.05,607.58,59.98,0000 0000 0000 0000 000000
2017-11-25 07:49:17,0.01,2.28,0.00,16.96,20.27,23.45,14.26,49.73,1014.81,2054.99,2552.00,2626.87,2892.00,599.69,607.16,60.03,0000 0000 0000 0000 000000
2017-11-25 07:54:19,0.02,2.28,0.00,16.97,20.27,23.42,14.23,49.67,1014.75,2054.99,2551.98,2626.46,2892.00,600.07,607.39,60.08,0000 0000 0000 0000 000000
2017-11-25 07:59:20,0.02,1.98,0.00,16.94,20.28,23.45,12.86,44.45,1014.74,2055.26,2681.79,2695.63,2987.84,538.17,544.82,0.00,0000 0000 0000 0000 000002
2017-11-25 08:04:22,0.03,0.00,0.00,16.91,20.29,23.49,14.25,48.46,1014.72,2057.00,3522.38,3146.25,3611.09,599.97,607.44,0.02,0000 0000 0000 0000 000000
2017-11-25 08:09:23,0.02,0.00,0.00,16.93,20.27,23.48,14.14,48.43,1014.77,2057.00,3520.33,3145.98,3610.61,599.78,607.19,0.07,0000 0000 0000 0000 000000
2017-11-25 08:14:25,0.02,0.00,0.00,16.93,20.27,23.50,14.28,48.33,1014.89,2056.99,3519.45,3145.59,3610.02,600.22,607.73,0.12,0000 0000 0000 0000 000000
2017-11-25 08:19:26,0.02,0.00,0.00,16.94,20.27,23.47,14.29,48.42,1014.96,2056.99,3518.98,3145.10,3609.62,600.14,607.75,0.17,0000 0000 0000 0000 000000
2017-11-25 08:24:27,0.02,0.00,0.00,16.91,20.25,23.48,14.14,48.26,1014.89,2056.99,3518.28,3145.00,3609.02,599.73,607.28,0.22,0000 0000 0000 0000 000000
2017-11-25 08:29:29,0.01,0.00,0.00,16.89,20.24,23.55,14.20,48.31,1014.78,2056.99,3517.99,3144.99,3608.98,599.58,607.11,0.27,0000 0000 0000 0000 000000
2017-11-25 08:34:30,0.02,0.00,0.00,16.89,20.24,23.51,14.25,48.40,1014.71,2056.99,3517.45,3144.95,3608.43,600.38,607.76,0.32,0000 0000 0000 0000 000000
2017-11-25 08:39:31,0.01,0.00,0.00,16.92,20.24,23.54,14.28,48.42,1014.72,2056.99,3517.01,3144.54,3608.01,600.61,607.92,0.37,0000 0000 0000 0000 000000
2017-11-25 08:44:32,0.01,0.00,0.00,16.90,20.24,23.53,14.29,48.37,1014.71,2056.99,3516.69,3144.07,3607.99,600.07,607.35,0.42,0000 0000 0000 0000 000000
2017-11-25 08:49:34,0.01,0.00,0.00,16.87,20.22,23.55,14.30,48.48,1014.70,2056.99,3516.03,3144.01,3607.59,599.98,607.47,0.47,0000 0000 0000 0000 000000
2017-11-25 08:54:35,0.01,0.00,0.00,16.89,20.22,23.56,14.22,48.48,1014.69,2056.99,3515.82,3143.99,3607.04,600.10,607.44,0.52,0000 0000 0000 0000 000000
2017-11-25 08:59:36,0.01,0.01,0.00,16.89,20.22,23.54,14.24,48.48,1014.67,2056.99,3515.06,3143.93,3606.98,599.90,607.41,0.57,0000 0000 0000 0000 000000
2017-11-25 09:04:37,0.01,0.01,0.00,16.83,20.22,23.51,14.29,48.43,1014.66,2056.99,3515.00,3143.81,3606.84,600.42,607.92,0.62,0000 0000 0000 0000 000000
2017-11-25 09:09:39,0.03,0.01,0.00,16.87,20.20,23.58,14.24,48.41,1014.66,2057.00,3514.61,3143.28,3606.19,599.91,607.39,0.67,0000 0000 0000 0000 000000
2017-11-25 09:14:40,0.01,0.01,0.00,16.84,20.19,23.58,14.30,48.34,1014.66,2057.00,3514.02,3143.03,3606.00,600.24,607.71,0.72,0000 0000 0000 0000 000000
2017-11-25 09:19:41,0.00,0.01,0.00,16.80,20.19,23.53,14.29,48.39,1014.66,2057.00,3513.84,3143.00,3605.91,599.94,607.55,0.77,0000 0000 0000 0000 000000
2017-11-25 09:24:42,0.02,0.01,0.00,16.81,20.19,23.61,14.27,48.27,1014.66,2057.00,3513.14,3142.99,3605.35,600.16,607.68,0.82,0000 0000 0000 0000 000000
2017-11-25 09:29:44,0.00,0.01,0.00,16.80,20.18,23.52,14.25,48.22,1014.66,2057.02,3513.00,3142.98,3605.03,599.85,607.45,0.87,0000 0000 0000 0000 000000
2017-11-25 09:34:45,0.00,0.01,0.00,16.80,20.17,23.58,14.28,48.23,1014.66,2057.02,3512.96,3142.90,3605.00,600.02,607.62,0.92,0000 0000 0000 0000 000000
2017-11-25 09:39:47,0.03,0.01,0.00,16.81,20.17,23.58,14.25,48.22,1014.66,2057.02,3512.31,3142.32,3604.97,600.23,607.71,0.97,0000 0000 0000 0000 000000
2017-11-25 09:44:48,0.01,0.01,0.00,16.84,20.17,23.53,14.25,48.13,1014.66,2057.04,3512.01,3142.07,3604.51,599.99,607.58,1.02,0000 0000 0000 0000 000000
2017-11-25 09:49:49,0.00,0.01,0.00,16.81,20.17,23.48,14.26,48.19,1014.66,2057.04,3511.95,3142.01,3604.06,600.19,607.76,1.07,0000 0000 0000 0000 000000
2017-11-25 09:54:51,0.01,0.01,0.00,16.81,20.16,23.53,14.31,48.22,1014.66,2057.04,3511.27,3142.00,3604.00,600.40,608.04,1.12,0000 0000 0000 0000 000000
2017-11-25 09:59:52,0.00,0.01,0.00,16.79,20.14,23.48,14.31,48.34,1014.60,2057.05,3511.00,3141.98,3603.89,600.10,607.67,1.17,0000 0000 0000 0000 000000
2017-11-25 10:04:53,0.02,0.01,0.00,16.79,20.14,23.57,14.26,48.17,1014.46,2057.05,3510.72,3141.89,3603.29,599.99,607.47,1.22,0000 0000 0000 0000 000000
2017-11-25 10:09:55,0.02,0.02,0.00,16.75,20.14,23.50,14.24,48.21,1014.39,2057.08,3510.14,3141.59,3603.03,599.81,607.31,1.27,0000 0000 0000 0000 000000
2017-11-25 10:14:56,0.02,0.02,0.00,16.76,20.13,23.53,14.24,48.26,1014.39,2057.18,3510.00,3141.16,3603.00,600.03,607.65,1.32,0000 0000 0000 0000 000000
2017-11-25 10:19:57,0.01,0.02,0.00,16.79,20.12,23.50,14.25,48.25,1014.36,2057.34,3509.98,3141.07,3603.00,599.97,607.38,1.37,0000 0000 0000 0000 000000
2017-11-25 10:24:58,0.03,0.02,0.00,16.79,20.12,23.50,14.30,48.27,1014.36,2057.49,3509.50,3141.02,3602.91,600.16,607.52,1.42,0000 0000 0000 0000 000000
2017-11-25 10:29:59,0.03,0.02,0.00,16.76,20.12,23.42,14.23,48.19,1014.43,2057.68,3509.02,3141.00,3602.25,599.94,607.48,1.47,0000 0000 0000 0000 000000
2017-11-25 10:35:01,-0.00,0.02,0.00,16.78,20.12,23.38,14.27,48.20,1014.49,2057.67,3508.98,3140.97,3602.02,600.42,608.04,1.52,0000 0000 0000 0000 000000
2017-11-25 10:40:02,0.01,0.02,0.00,16.78,20.10,23.46,14.27,48.23,1014.31,2057.70,3508.43,3140.96,3601.99,599.89,607.33,1.57,0000 0000 0000 0000 000000
2017-11-25 10:45:03,0.02,0.02,0.00,16.71,20.09,23.46,14.23,48.19,1014.25,2057.69,3508.03,3140.70,3601.75,599.86,607.41,1.62,0000 0000 0000 0000 000000
2017-11-25 10:50:04,0.03,0.02,0.00,16.75,20.09,23.44,14.23,48.15,1014.19,2057.86,3507.99,3140.33,3601.25,600.12,607.58,1.67,0000 0000 0000 0000 000000
2017-11-25 10:55:06,0.02,0.02,0.00,16.77,20.09,23.41,14.25,48.16,1014.18,2057.94,3507.69,3140.05,3601.01,600.23,607.57,1.72,0000 0000 0000 0000 000000
2017-11-25 11:00:07,0.00,0.03,0.00,16.73,20.09,23.36,14.15,48.23,1014.16,2057.93,3507.04,3140.00,3600.99,599.78,607.41,1.77,0000 0000 0000 0000 000000
2017-11-25 11:05:08,-0.00,0.03,0.00,16.69,20.08,23.46,14.23,48.38,1014.06,2057.95,3507.00,3140.00,3600.85,599.99,607.41,1.82,0000 0000 0000 0000 000000
2017-11-25 11:10:09,0.01,0.03,0.00,16.71,20.07,23.47,14.24,48.37,1013.97,2057.90,3506.55,3139.96,3600.09,599.95,607.44,1.87,0000 0000 0000 0000 000000
2017-11-25 11:15:11,0.01,0.03,0.00,16.68,20.07,23.44,14.27,48.40,1013.82,2057.98,3506.04,3139.89,3600.00,599.97,607.29,1.93,0000 0000 0000 0000 000000
2017-11-25 11:20:12,0.01,0.03,0.00,16.66,20.07,23.51,14.26,48.36,1013.69,2057.96,3506.00,3139.42,3600.00,599.96,607.30,1.98,0000 0000 0000 0000 000000
2017-11-25 11:25:14,0.02,0.03,0.00,16.64,20.05,23.47,14.23,48.32,1013.70,2057.96,3505.64,3139.06,3599.65,599.79,607.08,2.03,0000 0000 0000 0000 000000
2017-11-25 11:30:15,0.01,0.03,0.00,16.65,20.04,23.49,14.26,48.28,1013.69,2057.96,3505.05,3139.00,3599.05,600.25,607.56,2.08,0000 0000 0000 0000 000000
2017-11-25 11:35:16,0.00,0.03,0.00,16.59,20.04,23.52,14.27,48.24,1013.70,2057.98,3505.00,3139.00,3599.01,600.13,607.48,2.13,0000 0000 0000 0000 000000
2017-11-25 11:40:18,-0.00,0.03,0.00,16.63,20.02,23.49,14.22,48.26,1013.69,2057.98,3504.88,3138.99,3598.99,600.22,607.37,2.18,0000 0000 0000 0000 000000
2017-11-25 11:45:19,0.01,0.03,0.00,16.59,20.02,23.47,14.25,48.22,1013.69,2057.98,3504.20,3138.96,3598.89,600.00,607.50,2.23,0000 0000 0000 0000 000000
2017-11-25 11:50:21,0.01,0.03,0.00,16.59,20.01,23.45,14.25,48.27,1013.70,2057.99,3504.02,3138.89,3598.60,600.05,607.56,2.28,0000 0000 0000 0000 000000
2017-11-25 11:55:22,0.01,0.03,0.00,16.59,19.99,23.43,14.33,48.29,1013.69,2057.99,3504.00,3138.66,3598.13,600.20,607.66,2.33,0000 0000 0000 0000 000000
2017-11-25 12:00:23,0.01,0.03,0.00,16.59,19.99,23.47,14.27,48.17,1013.69,2057.99,3503.97,3138.28,3598.02,599.89,607.42,2.38,0000 0000 0000 0000 000000
2017-11-25 12:05:24,0.01,0.03,0.00,16.65,19.99,23.39,14.28,48.27,1013.69,2057.99,3503.45,3138.05,3597.98,600.21,607.56,2.43,0000 0000 0000 0000 000000
2017-11-25 12:10:26,0.00,0.03,0.00,16.66,19.97,23.30,14.23,48.17,1013.69,2057.99,3503.03,3138.00,3597.93,600.10,607.39,2.48,0000 0000 0000 0000 000000
2017-11-25 12:15:27,0.01,0.03,0.00,16.65,19.97,23.26,14.24,48.13,1013.69,2057.99,3502.99,3138.00,3597.47,599.81,607.17,2.53,0000 0000 0000 0000 000000
2017-11-25 12:20:28,0.00,0.03,0.00,16.66,19.97,23.19,14.19,48.12,1013.69,2057.99,3502.92,3138.00,3597.07,599.94,607.17,2.58,0000 0000 0000 0000 000000
2017-11-25 12:25:29,0.01,0.04,0.00,16.69,19.96,23.18,14.23,48.01,1013.69,2058.00,3502.36,3137.98,3597.01,600.11,607.34,2.63,0000 0000 0000 0000 000000
2017-11-25 12:30:30,0.00,0.04,0.00,16.71,19.96,23.11,14.20,48.11,1013.67,2058.00,3502.04,3137.98,3597.00,600.13,607.34,2.68,0000 0000 0000 0000 000000
2017-11-25 12:35:32,0.00,0.04,0.00,16.70,19.95,23.10,14.21,48.13,1013.59,2058.01,3502.00,3137.94,3596.97,600.30,607.51,2.73,0000 0000 0000 0000 000000
2017-11-25 12:40:33,0.01,0.04,0.00,16.73,19.95,23.08,14.23,48.04,1013.48,2058.00,3501.96,3137.52,3596.55,600.16,607.18,2.78,0000 0000 0000 0000 000000
2017-11-25 12:45:34,0.03,0.04,0.00,16.74,19.96,23.09,14.23,48.08,1013.24,2058.00,3501.37,3137.08,3596.04,600.08,606.89,2.83,0000 0000 0000 0000 000000
2017-11-25 12:50:36,0.00,0.04,0.00,16.74,19.96,23.07,14.22,48.09,1013.21,2058.00,3501.00,3137.00,3595.99,600.44,607.17,2.88,0000 0000 0000 0000 000000
2017-11-25 12:55:37,0.00,0.04,0.00,16.73,19.96,23.08,14.23,48.05,1013.20,2058.00,3500.99,3137.00,3595.93,600.02,607.13,2.93,0000 0000 0000 0000 000000